Weather History for Bellaire, MI

Change the Weather History Date:

Saturday, June 15, 2013

  Actual Average (KTVC) Record (KTVC)
Temperature  
Mean Temperature 56 °F 64 °F  
Max Temperature 74 °F 76 °F 97 °F (1954)
Min Temperature 39 °F 52 °F 35 °F (1942)
Degree Days  
Heating Degree Days 8 3  
Month to date heating degree days 78  
Since 1 June heating degree days 78  
Since 1 July heating degree days 7514  
Cooling Degree Days 0 3  
Month to date cooling degree days 25  
Year to date cooling degree days 45  
Since 1 June cooling degree days 25  
Growing Degree Days 6 (Base 50)    
Moisture  
Dew Point 49 °F    
Average Humidity 68    
Maximum Humidity 93    
Minimum Humidity 39    
Precipitation  
Precipitation 0.00 in 0.10 in 1.88 in (1981)
Month to date precipitation 1.46  
Year to date precipitation 13.01  
Sea Level Pressure  
Sea Level Pressure 29.97 in    
Wind  
Wind Speed 1 mph (South)    
Max Wind Speed 6 mph    
Max Gust Speed -    
Visibility 10 miles    
Events Rain    
T = Trace of Precipitation, MM = Missing Value Source: NWS Daily Summary

Daily Weather History Graph

Daily Weather History Graph

Search for Another Location

Airport:

Trip Planner

Search our weather history database for the weather conditions in past years. The results will help you decide how hot, cold, wet, or windy it might be!

Date:

Astronomy

Jun. 15, 2013 Rise Set
Actual Time 5:53 AM EDT 9:29 PM EDT
Civil Twilight 5:16 AM EDT 10:06 PM EDT
Nautical Twilight 4:26 AM EDT 10:56 PM EDT
Astronomical Twilight 3:21 AM EDT 12:02 AM EDT
Moon 12:43 PM EDT (6/15) 12:49 AM EDT (6/15)
Length of Visible Light 16h 50m
Length of Day
15h 35m
Waxing Crescent, 39% of the Moon is Illuminated
Jun 15
Waxing Crescent
Jun 16
First Quarter
Jun 23
Full
Jun 30
Last Quarter
Jul 8
New

Hourly Weather History & Observations

Time (EDT) Temp. Windchill Dew Point Humidity Pressure Visibility Wind Dir Wind Speed Gust Speed Precip Events Conditions
12:12 AM 44.6 °F - 40.3 °F 85% 30.05 in 10.0 mi North - - N/A   Clear
12:33 AM 43.7 °F - 40.8 °F 90% 30.05 in 10.0 mi Calm Calm - N/A   Clear
12:52 AM 43.9 °F - 41.0 °F 90% 30.05 in 10.0 mi Calm Calm - N/A   Clear
1:12 AM 42.8 °F - 39.6 °F 88% 30.04 in 10.0 mi Calm Calm - N/A   Clear
1:33 AM 42.1 °F - 39.6 °F 91% 30.03 in 10.0 mi Calm Calm - N/A   Clear
1:52 AM 40.5 °F - 37.9 °F 91% 30.04 in 10.0 mi Calm Calm - N/A   Clear
2:12 AM 39.6 °F - 37.6 °F 93% 30.03 in 10.0 mi Calm Calm - N/A   Clear
2:33 AM 40.8 °F - 38.5 °F 91% 30.03 in 10.0 mi North - - N/A   Clear
2:52 AM 42.3 °F - 37.9 °F 85% 30.04 in 10.0 mi North - - N/A   Clear
3:13 AM 42.8 °F - 38.7 °F 85% 30.03 in 10.0 mi North - - N/A   Clear
3:33 AM 42.1 °F 39.2 °F 39.4 °F 90% 30.04 in 10.0 mi North 4.6 mph - N/A   Clear
3:52 AM 43.5 °F - 40.3 °F 88% 30.04 in 10.0 mi Calm Calm - N/A   Clear
4:13 AM 43.2 °F - 41.0 °F 92% 30.03 in 10.0 mi North - - N/A   Clear
4:32 AM 44.8 °F - 41.9 °F 90% 30.03 in 10.0 mi North - - N/A   Clear
4:53 AM 45.5 °F - 41.9 °F 87% 30.02 in 10.0 mi Calm Calm - N/A   Mostly Cloudy
5:12 AM 46.4 °F - 40.1 °F 79% 30.02 in 10.0 mi Calm Calm - N/A   Scattered Clouds
5:33 AM 45.9 °F - 41.9 °F 86% 30.04 in 10.0 mi Calm Calm - N/A   Clear
5:53 AM 46.4 °F 45.2 °F 41.9 °F 84% 30.04 in 10.0 mi East 3.5 mph - N/A   Scattered Clouds
6:12 AM 47.3 °F - 42.3 °F 83% 30.04 in 10.0 mi North - - N/A   Scattered Clouds
6:33 AM 46.8 °F - 42.8 °F 86% 30.04 in 10.0 mi North - - N/A   Scattered Clouds
6:53 AM 47.3 °F - 43.9 °F 88% 30.04 in 10.0 mi North - - N/A   Overcast
7:12 AM 48.2 °F - 43.3 °F 83% 30.03 in 10.0 mi Calm Calm - N/A   Overcast
7:33 AM 49.1 °F - 43.3 °F 81% 30.03 in 10.0 mi Calm Calm - N/A   Scattered Clouds
7:52 AM 50.5 °F - 44.6 °F 80% 30.04 in 10.0 mi Calm Calm - N/A   Scattered Clouds
8:12 AM 52.7 °F - 43.9 °F 72% 30.03 in 10.0 mi Calm Calm - N/A   Mostly Cloudy
8:33 AM 53.6 °F - 44.4 °F 71% 30.03 in 10.0 mi Calm Calm - N/A   Mostly Cloudy
8:52 AM 55.6 °F - 46.4 °F 71% 30.03 in 10.0 mi Calm Calm - N/A   Scattered Clouds
9:13 AM 57.4 °F - 44.1 °F 61% 30.03 in 10.0 mi North - - N/A   Clear
9:33 AM 59.2 °F - 45.0 °F 59% 30.04 in 10.0 mi North - - N/A   Clear
9:52 AM 60.8 °F - 44.8 °F 56% 30.03 in 10.0 mi North - - N/A   Clear
10:13 AM 62.4 °F - 42.4 °F 48% 30.03 in 10.0 mi SSW 4.6 mph - N/A   Clear
10:33 AM 63.5 °F - 45.0 °F 51% 30.01 in 10.0 mi South 4.6 mph - N/A   Clear
10:52 AM 64.6 °F - 45.7 °F 50% 30.01 in 10.0 mi Calm Calm - N/A   Clear
11:13 AM 66.4 °F - 43.2 °F 43% 30.00 in 10.0 mi South 3.5 mph - N/A   Clear
11:33 AM 67.1 °F - 41.9 °F 40% 29.98 in 10.0 mi Calm Calm - N/A   Clear
11:52 AM 68.5 °F - 43.0 °F 40% 29.98 in 10.0 mi South 4.6 mph - N/A   Clear
12:13 PM 69.3 °F - 45.9 °F 43% 29.98 in 10.0 mi North - - N/A   Clear
12:32 PM 69.8 °F - 47.8 °F 46% 29.96 in 10.0 mi North - - N/A   Scattered Clouds
12:53 PM 69.6 °F - 50.2 °F 50% 29.97 in 10.0 mi Calm Calm - N/A Rain Light Rain
1:13 PM 71.8 °F - 51.4 °F 49% 29.97 in 10.0 mi North - - N/A   Clear
1:32 PM 72.7 °F - 51.3 °F 47% 29.98 in 10.0 mi Calm Calm - N/A   Clear
1:53 PM 72.7 °F - 51.6 °F 47% 29.97 in 10.0 mi Calm Calm - N/A   Clear
2:13 PM 73.4 °F - 52.7 °F 48% 29.97 in 10.0 mi North - - N/A   Clear
2:32 PM 73.9 °F - 52.0 °F 46% 29.96 in 10.0 mi South 5.8 mph - N/A   Clear
2:53 PM 73.6 °F - 50.7 °F 45% 29.96 in 10.0 mi North - - N/A   Clear
3:13 PM 74.1 °F - 47.8 °F 39% 29.94 in 10.0 mi SW 4.6 mph - N/A   Clear
3:32 PM 74.3 °F - 48.9 °F 41% 29.95 in 10.0 mi Calm Calm - N/A   Clear
3:53 PM 73.9 °F - 52.0 °F 46% 29.95 in 10.0 mi North - - N/A   Clear
4:13 PM 74.5 °F - 53.1 °F 47% 29.95 in 10.0 mi North - - N/A   Scattered Clouds
4:33 PM 73.8 °F - 54.7 °F 51% 29.95 in 10.0 mi North - - N/A   Mostly Cloudy
4:53 PM 73.4 °F - 55.2 °F 53% 29.95 in 10.0 mi North - - N/A   Mostly Cloudy
5:13 PM 72.5 °F - 55.4 °F 55% 29.95 in 10.0 mi North - - N/A   Overcast
5:33 PM 72.5 °F - 56.3 °F 57% 29.94 in 10.0 mi North - - N/A   Overcast
5:53 PM 71.6 °F - 56.3 °F 58% 29.93 in 10.0 mi North - - N/A   Overcast
6:12 PM 71.4 °F - 56.5 °F 59% 29.91 in 10.0 mi North - - N/A   Overcast
6:33 PM 71.2 °F - 56.7 °F 60% 29.90 in 10.0 mi South 3.5 mph - N/A   Mostly Cloudy
6:53 PM 71.2 °F - 57.2 °F 61% 29.90 in 10.0 mi South 3.5 mph - N/A   Mostly Cloudy
7:12 PM 71.2 °F - 57.4 °F 61% 29.90 in 10.0 mi Calm Calm - N/A   Overcast
7:33 PM 71.1 °F - 57.9 °F 63% 29.88 in 10.0 mi Calm Calm - N/A   Overcast
7:53 PM 71.4 °F - 59.0 °F 65% 29.87 in 10.0 mi North - - N/A   Overcast
8:12 PM 71.2 °F - 59.0 °F 65% 29.86 in 10.0 mi SSE 5.8 mph - N/A   Overcast
8:33 PM 70.7 °F - 59.2 °F 67% 29.85 in 10.0 mi Calm Calm - N/A   Overcast
8:53 PM 70.7 °F - 59.4 °F 67% 29.85 in 10.0 mi Calm Calm - N/A   Overcast
9:13 PM 70.0 °F - 60.1 °F 71% 29.84 in 10.0 mi Calm Calm - N/A   Overcast
9:33 PM 68.0 °F - 60.3 °F 76% 29.83 in 10.0 mi Calm Calm - N/A   Overcast
9:53 PM 67.1 °F - 60.8 °F 80% 29.83 in 10.0 mi Calm Calm - N/A   Overcast
10:13 PM 66.2 °F - 60.8 °F 83% 29.83 in 10.0 mi North - - N/A   Overcast
10:33 PM 66.9 °F - 60.8 °F 81% 29.84 in 10.0 mi North - - N/A   Overcast
10:52 PM 66.2 °F - 60.8 °F 83% 29.83 in 10.0 mi Calm Calm - N/A   Overcast
11:13 PM 67.3 °F - 61.2 °F 81% 29.83 in 10.0 mi North - - N/A   Overcast
11:33 PM 65.8 °F - 61.3 °F 85% 29.82 in 10.0 mi Calm Calm - N/A   Overcast
11:52 PM 66.9 °F - 61.3 °F 82% 29.83 in 10.0 mi North - - N/A   Overcast